Location: Johnson City
(36.3130°N, 82.3540°W)
Time: 13:07:25
(UTC-05:00)

OTV 5 (USA 277) - Pass Details

Date: 19 January 2018
Orbit: 404 x 417 km, 43.0° (Epoch: 07 September)

Event Time Altitude Azimuth Distance (km) Brightness Sun altitude
Rises 19:34:08 0° 211° (SSW) 2,337 ? -22.3°
Reaches altitude 10° 19:36:32 10° 195° (SSW) 1,477 ? -22.8°
Enters shadow 19:37:16 14° 185° (S) 1,258 ? -23.0°
